x

Superior Grand Traverse Bay, Mi (gtrm4) Weather Station

3:00am - Wed 22nd Nov 2017 All times are CST. -6 hours from GMT.

  • Wind
    9mph, 13mph gusts
  • Air Temp 25°f
  • Sea Pressure 1022.7mb
  • Superior Grand Traverse Bay, Mi
  • Superior Grand Traverse Bay, Mi

More Historic Weather Station data

Upgrade to MSW Pro to gain access to the past 30 days of data for over 8000 Wavebouys and Weather Stations around the globe.

Join

Comparision Forecast

View Surf forecast
   
Wed 11/22 3:00am 9 13 mph 1022.7mb 25f
2:50am 6 13 mph 1023mb 24f
2:40am 8 13 mph 1022.7mb 24f
2:30am 6 9 mph 1022.7mb 24f
2:20am 7 11 mph 1022.7mb 24f
2:10am 6 10 mph 1022.7mb 24f
2:00am 7 9 mph 1022.7mb 24f
Tue 11/21 11:00pm 8 14 mph 1020.7mb 24f
10:00pm 8 10 mph 1020.3mb 23f
9:50pm 5 8 mph 1020mb 23f
9:40pm 6 8 mph 1020mb 23f
9:30pm 5 8 mph 1020mb 23f
9:20pm 5 8 mph 1019.6mb 23f
9:10pm 7 10 mph 1020mb 23f
9:00pm 9 15 mph 1020mb 23f
8:50pm 10 17 mph 1019.6mb 23f
8:40pm 10 16 mph 1019.3mb 22f
8:30pm 15 23 mph 1019.6mb 23f
8:20pm 13 18 mph 1019.6mb 22f
8:10pm 14 22 mph 1019.3mb 23f
8:00pm 15 20 mph 1019.3mb 23f
7:50pm 13 21 mph 1019.3mb 23f
7:40pm 10 20 mph 1019.3mb 23f
7:30pm 13 22 mph 1019.3mb 23f
7:20pm 11 28 mph 1019mb 23f
7:10pm 11 22 mph 1019mb 23f
7:00pm 13 23 mph 1018.6mb 23f
6:50pm 11 17 mph 1018.6mb 24f
6:40pm 13 18 mph 1018.3mb 24f
6:30pm 10 18 mph 1018.3mb 24f
6:20pm 13 21 mph 1018.3mb 24f
6:10pm 14 20 mph 1018.3mb 24f
6:00pm 11 21 mph 1017.9mb 24f
5:50pm 14 24 mph 1017.6mb 24f
5:40pm 15 21 mph 1017.6mb 24f
5:30pm 16 22 mph 1017.3mb 24f
5:20pm 9 16 mph 1017.3mb 24f
5:10pm 11 16 mph 1016.9mb 24f
5:00pm 9 15 mph 1016.9mb 24f
4:50pm 8 16 mph 1016.6mb 24f
4:40pm 13 21 mph 1016.9mb 24f
4:30pm 11 20 mph 1016.6mb 24f
4:20pm 10 18 mph 1016.6mb 24f
4:10pm 11 18 mph 1016.3mb 24f
4:00pm 9 21 mph 1015.9mb 23f
3:50pm 11 18 mph 1015.9mb 23f
3:40pm 6 14 mph 1015.9mb 23f
3:30pm 9 16 mph 1015.6mb 23f
3:20pm 13 18 mph 1015.2mb 23f
3:10pm 13 20 mph 1014.9mb 23f
3:00pm 11 20 mph 1014.9mb 23f
2:50pm 10 18 mph 1014.2mb 23f
2:40pm 8 22 mph 1014.2mb 23f
2:30pm 13 22 mph 1013.9mb 23f
2:20pm 15 22 mph 1013.5mb 23f
2:10pm 11 22 mph 1013.5mb 23f
2:00pm 14 21 mph 1013.2mb 23f
1:50pm 14 21 mph 1013.2mb 23f
1:40pm 14 23 mph 1012.5mb 23f
1:30pm 14 23 mph 1012.5mb 23f
1:20pm 15 23 mph 1012.2mb 23f
1:10pm 17 28 mph 1011.9mb 23f
1:00pm 15 24 mph 1011.5mb 23f
12:50pm 16 26 mph 1011.2mb 23f
12:40pm 16 28 mph 1010.8mb 23f
12:30pm 20 28 mph 1010.8mb 23f
12:20pm 18 30 mph 1010.5mb 23f
12:10pm 17 26 mph 1010.2mb 23f
12:00pm 16 29 mph 1009.8mb 23f
11:50am 22 32 mph 1009.5mb 23f
11:40am 20 31 mph 1009.1mb 24f
11:30am 18 26 mph 1008.8mb 24f
11:20am 15 25 mph 1008.5mb 24f
11:10am 16 29 mph 1008.1mb 24f
11:00am 18 24 mph 1007.8mb 24f
10:50am 15 23 mph 1007.5mb 24f
10:40am 16 23 mph 1007.1mb 24f
10:30am 16 23 mph 1006.4mb 24f
10:20am 11 24 mph 1006.4mb 24f
10:10am 18 26 mph 1005.8mb 24f
10:00am 17 31 mph 1005.4mb 24f
9:50am 16 29 mph 1005.1mb 24f
9:40am 16 30 mph 1004.4mb 24f
9:30am 14 26 mph 1004.1mb 25f
9:20am 15 30 mph 1004.1mb 24f
9:10am 22 32 mph 1003mb 25f
9:00am 22 33 mph 1002.7mb 25f
8:50am 18 34 mph 1002.4mb 26f
8:40am 22 30 mph 1002mb 26f
8:30am 20 30 mph 1001.4mb 26f
8:20am 17 30 mph 1001mb 27f
8:10am 21 32 mph 1001mb 28f
8:00am 16 32 mph 1000mb 30f
7:50am 15 23 mph 999.7mb 30f
7:40am 18 30 mph 999.3mb 29f
7:30am 17 29 mph 999mb 29f
7:20am 15 26 mph 998.3mb 30f
7:10am 15 29 mph 998mb 30f
7:00am 21 34 mph 997.6mb 30f
6:50am 25 33 mph 997.3mb 31f
6:40am 14 30 mph 997.3mb 31f
6:30am 17 31 mph 997mb 31f
6:20am 13 31 mph 996.6mb 31f
6:10am 15 29 mph 996.6mb 32f
6:00am 17 29 mph 996.3mb 32f
5:50am 18 30 mph 996.3mb 32f
5:40am 23 33 mph 995.6mb 32f
5:30am 21 30 mph 995.3mb 33f
5:20am 20 31 mph 994.9mb 33f
5:10am 20 36 mph 994.6mb 33f
5:00am 20 30 mph 994.2mb 33f
4:50am 17 37 mph 994.2mb 33f
4:40am 20 31 mph 993.6mb 34f
4:30am 22 31 mph 993.2mb 34f
4:20am 23 33 mph 993.2mb 35f
4:10am 20 34 mph 992.9mb 36f
4:00am 18 32 mph 992.6mb 36f
3:50am 22 45 mph 992.2mb 37f
3:40am 21 37 mph 991.5mb 37f
3:30am 20 31 mph 991.9mb 38f
3:20am 18 36 mph 991.2mb 38f
3:10am 20 39 mph 990.9mb 39f
3:00am 14 26 mph 990.9mb 41f
2:50am 13 22 mph 990.9mb 41f
2:40am 11 22 mph 990.5mb 41f
2:30am 16 23 mph 990.9mb 41f
2:20am 10 23 mph 990.5mb 41f
2:10am 11 22 mph 990.5mb 41f
2:00am 16 23 mph 990.2mb 41f
1:50am 11 25 mph 990.2mb 41f
1:40am 14 28 mph 990.2mb 41f
1:30am 18 29 mph 989.8mb 42f
1:20am 17 28 mph 989.8mb 42f
1:10am 16 30 mph 989.5mb 42f
1:00am 14 23 mph 989.5mb 42f
12:50am 10 21 mph 989.5mb 42f
12:40am 11 21 mph 989.5mb 42f
12:30am 10 18 mph 989.5mb 41f
12:20am 8 17 mph 989.2mb 40f
12:10am 7 15 mph 989.2mb 39f
12:00am 9 14 mph 989.5mb 39f
Mon 11/20 11:50pm 7 11 mph 989.5mb 39f
11:40pm 6 10 mph 989.5mb 39f
11:30pm 7 13 mph 989.5mb 39f
11:20pm 7 11 mph 989.5mb 38f
11:10pm 6 10 mph 989.5mb 38f
11:00pm 6 10 mph 989.5mb 38f
10:50pm 6 9 mph 989.5mb 37f
10:40pm 3 9 mph 989.5mb 36f
10:30pm 3 6 mph 989.8mb 36f
10:20pm 1 5 mph 989.8mb 35f
10:10pm 2 3 mph 989.8mb 35f
10:00pm 2 6 mph 990.2mb 36f
9:50pm 3 8 mph 990.2mb 36f
9:40pm 3 6 mph 990.2mb 36f
9:30pm 3 6 mph 990.5mb 36f
9:20pm 3 7 mph 990.5mb 36f
9:10pm 3 6 mph 990.5mb 36f
9:00pm 3 8 mph 990.9mb 37f
8:50pm 3 7 mph 991.2mb 37f
8:40pm 3 8 mph 991.5mb 37f
8:30pm 5 8 mph 991.2mb 38f
8:20pm 5 10 mph 991.2mb 38f
8:10pm 5 9 mph 991.5mb 38f
8:00pm 5 9 mph 991.9mb 38f
7:50pm 7 10 mph 991.9mb 38f
7:40pm 3 7 mph 991.9mb 38f
7:30pm 5 9 mph 992.2mb 39f
7:20pm 5 13 mph 992.6mb 40f
7:10pm 6 10 mph 992.6mb 40f
7:00pm 3 9 mph 992.9mb 38f
6:50pm 2 7 mph 993.2mb 36f
6:40pm  -  3 mph 993.2mb 35f
6:30pm 2 7 mph 993.9mb 37f
6:20pm 5 9 mph 993.9mb 39f
6:10pm 5 8 mph 994.2mb 38f
6:00pm 2 6 mph 994.2mb 37f
5:50pm 2 3 mph 994.6mb 37f
5:40pm 2 3 mph 994.6mb 38f
5:30pm  -  5 mph 994.9mb 38f
5:20pm 2 8 mph 995.3mb 39f
5:10pm 6 9 mph 995.3mb 40f
5:00pm 6 9 mph 995.6mb 41f
4:50pm 8 9 mph 995.3mb 41f
4:40pm 9 10 mph 995.6mb 41f
4:30pm 6 8 mph 995.9mb 40f
4:20pm 6 8 mph 995.9mb 40f
4:10pm 7 7 mph 996.3mb 40f
4:00pm 6 7 mph 996.6mb 40f
3:50pm 6 7 mph 997mb 40f
3:40pm 7 8 mph 997mb 40f
3:30pm 6 7 mph 997.3mb 40f
3:20pm 5 8 mph 997.3mb 39f
3:10pm 7 8 mph 997.3mb 39f
3:00pm 6 7 mph 997.3mb 39f
2:50pm 6 8 mph 998mb 39f
2:40pm 7 8 mph 998mb 38f
2:30pm 8 9 mph 998.3mb 38f
2:20pm 8 9 mph 998.3mb 38f
2:10pm 8 9 mph 998.6mb 38f
2:00pm 7 9 mph 999mb 37f
1:50pm 8 9 mph 999mb 37f
1:40pm 5 13 mph 999.7mb 37f
1:30pm 10 11 mph 999.3mb 37f
1:20pm 6 8 mph 1000mb 36f
1:10pm 7 9 mph 1000.3mb 36f
1:00pm 5 7 mph 1000.7mb 36f
12:50pm 5 8 mph 1000.7mb 35f
12:40pm 7 8 mph 1001mb 35f
12:30pm 6 8 mph 1001.4mb 35f
12:20pm 5 8 mph 1001.7mb 34f
12:10pm 6 8 mph 1002mb 34f
12:00pm 5 8 mph 1002.4mb 34f
11:50am 5 7 mph 1002.4mb 34f
11:40am 5 8 mph 1002.7mb 34f
11:30am 6 8 mph 1003mb 34f
11:20am  -  2 mph 1003mb 35f
11:10am  -  3 mph 1003.4mb 35f
11:00am 1 2 mph 1004.1mb 33f
10:50am 1 3 mph 1004.1mb 32f
10:40am 2 3 mph 1004.1mb 31f
10:30am 2 3 mph 1004.1mb 31f
10:20am 2 2 mph 1004.1mb 31f
10:10am 2 9 mph 1004.4mb 30f
10:00am 5 10 mph 1004.7mb 33f
9:50am 7 10 mph 1004.7mb 33f
9:40am 8 11 mph 1005.1mb 33f
9:30am 10 13 mph 1005.1mb 33f
9:20am 10 13 mph 1005.4mb 33f
9:10am 7 13 mph 1005.8mb 32f
9:00am 3 7 mph 1005.8mb 29f
8:50am 3 5 mph 1005.8mb 27f
8:40am 2 5 mph 1006.1mb 25f
8:30am 3 5 mph 1006.4mb 24f
8:20am 2 3 mph 1006.4mb 24f
8:10am 2 3 mph 1006.8mb 23f
8:00am 3 5 mph 1006.8mb 23f
7:50am 2 3 mph 1007.1mb 22f
7:40am 3 5 mph 1007.1mb 22f
7:30am 3 3 mph 1007.1mb 22f
7:20am 2 3 mph 1007.1mb 22f
7:10am 3 5 mph 1007.5mb 22f
7:00am 2 5 mph 1007.5mb 22f
6:50am 3 5 mph 1007.5mb 22f
6:40am 3 5 mph 1007.5mb 22f
6:30am 3 5 mph 1007.5mb 22f
6:20am 2 5 mph 1007.8mb 23f
6:10am 3 5 mph 1007.8mb 24f
6:00am 3 5 mph 1008.1mb 24f
5:50am 3 6 mph 1007.8mb 24f
5:40am 3 6 mph 1008.1mb 25f
5:30am 5 7 mph 1008.1mb 26f
5:20am 3 6 mph 1008.1mb 28f
5:10am  -  5 mph 1008.5mb 28f
5:00am  -  10 mph 1008.5mb 27f
4:50am 8 10 mph 1008.5mb 29f
4:40am 8 10 mph 1008.5mb 29f
4:30am 7 9 mph 1008.5mb 29f
4:20am 2 8 mph 1008.5mb 27f
4:10am 5 9 mph 1008.5mb 29f
4:00am 7 8 mph 1008.5mb 28f
3:50am 5 7 mph 1008.8mb 26f
3:40am 5 7 mph 1008.8mb 28f
3:30am 3 5 mph 1008.8mb 26f
3:20am 2 5 mph 1008.8mb 26f
3:10am 2 3 mph 1009.1mb 26f
3:00am 2 3 mph 1009.1mb 26f
2:50am 1 3 mph 1009.5mb 26f
2:40am 1 2 mph 1009.5mb 26f
2:30am 1 2 mph 1009.5mb 26f
2:20am  -  2 mph 1009.5mb 26f
2:10am 2 2 mph 1009.5mb 26f
2:00am 1 5 mph 1009.5mb 26f
1:50am 3 3 mph 1009.5mb 26f
1:40am 2 3 mph 1009.5mb 26f
1:30am 2 3 mph 1009.5mb 26f
1:20am  -  2 mph 1009.1mb 26f
1:10am  -  2 mph 1009.5mb 26f
1:00am 1 2 mph 1009.5mb 26f
12:50am  -  2 mph 1009.5mb 26f
12:40am 2 2 mph 1009.8mb 26f
12:30am  -  3 mph 1009.8mb 26f
12:20am 2 6 mph 1009.8mb 26f
12:10am 3 6 mph 1009.8mb 26f
12:00am 3 5 mph 1009.8mb 26f
Sun 11/19 11:50pm 3 6 mph 1009.8mb 26f
11:40pm 3 5 mph 1009.8mb 26f
11:30pm 2 7 mph 1009.8mb 26f
11:20pm 3 6 mph 1009.8mb 26f
11:10pm 3 6 mph 1009.8mb 26f
11:00pm 1 5 mph 1009.8mb 25f
10:50pm 2 5 mph 1009.8mb 25f
10:40pm 2 5 mph 1009.8mb 25f
10:30pm 2 6 mph 1009.8mb 25f
10:20pm 2 6 mph 1009.8mb 25f
10:10pm 2 6 mph 1009.8mb 25f
10:00pm 2 5 mph 1010.2mb 25f
9:50pm 2 6 mph 1010.2mb 25f
9:40pm 5 8 mph 1010.2mb 25f
9:30pm 5 9 mph 1010.2mb 25f
9:20pm 3 9 mph 1010.2mb 25f
9:10pm 5 8 mph 1010.2mb 25f
9:00pm 6 9 mph 1010.2mb 25f
8:50pm 3 9 mph 1010.5mb 24f
8:40pm 5 10 mph 1010.5mb 25f
8:30pm 6 9 mph 1010.5mb 25f
8:20pm 3 9 mph 1010.5mb 25f
8:10pm 5 9 mph 1010.5mb 24f
8:00pm 3 8 mph 1010.5mb 24f
7:50pm 5 8 mph 1010.5mb 24f
7:40pm 5 9 mph 1010.5mb 24f
7:30pm 3 7 mph 1010.2mb 24f
7:20pm 3 8 mph 1010.5mb 24f
7:10pm 5 8 mph 1010.5mb 24f
7:00pm 3 8 mph 1010.5mb 24f
6:50pm 3 7 mph 1010.5mb 25f
6:40pm 3 10 mph 1010.5mb 25f
6:30pm 6 11 mph 1010.5mb 25f
6:20pm 7 11 mph 1010.5mb 25f
6:10pm 5 10 mph 1010.2mb 25f
6:00pm 5 11 mph 1010.2mb 26f
5:50pm 5 11 mph 1010.2mb 26f
5:40pm 5 10 mph 1010.2mb 27f
5:30pm 6 14 mph 1010.5mb 27f
5:20pm 5 9 mph 1010.5mb 27f
5:10pm 3 8 mph 1010.5mb 26f
5:00pm 3 10 mph 1010.2mb 26f
4:50pm 6 11 mph 1010.2mb 26f
4:40pm 6 15 mph 1010.2mb 26f
4:30pm 9 16 mph 1010.2mb 26f
4:20pm 8 20 mph 1010.2mb 26f
4:10pm 10 22 mph 1010.5mb 26f
4:00pm 10 21 mph 1010.5mb 26f
3:50pm 10 18 mph 1010.5mb 26f
3:40pm 9 18 mph 1010.5mb 26f
3:30pm 10 17 mph 1010.5mb 26f
3:20pm 9 18 mph 1010.5mb 26f
3:10pm 9 23 mph 1010.8mb 26f
3:00pm 9 20 mph 1010.8mb 26f
2:50pm 10 21 mph 1010.5mb 26f
2:40pm 11 22 mph 1010.5mb 26f
2:30pm 9 23 mph 1010.5mb 26f
2:20pm 11 18 mph 1010.5mb 26f
2:10pm 9 20 mph 1010.8mb 26f
2:00pm 10 20 mph 1010.5mb 26f
1:50pm 13 20 mph 1010.5mb 26f
1:40pm 10 20 mph 1010.8mb 26f
1:30pm 10 17 mph 1010.8mb 25f
1:20pm 8 15 mph 1010.8mb 26f
1:10pm 13 20 mph 1010.8mb 25f
1:00pm 13 18 mph 1010.8mb 25f
12:50pm 13 20 mph 1010.8mb 25f
12:40pm 13 20 mph 1010.8mb 25f
12:30pm 14 21 mph 1011.2mb 25f
12:20pm 14 22 mph 1010.8mb 25f
12:10pm 8 17 mph 1011.2mb 25f
12:00pm 11 21 mph 1011.2mb 26f
11:50am 8 17 mph 1011.2mb 26f
11:40am 13 20 mph 1011.2mb 25f
11:30am 8 13 mph 1011.2mb 25f
11:20am 6 11 mph 1011.5mb 25f
11:10am 6 9 mph 1011.9mb 24f
11:00am 7 11 mph 1011.9mb 24f
10:50am 7 14 mph 1011.9mb 24f
10:40am 9 15 mph 1012.2mb 24f
10:30am 9 17 mph 1012.2mb 24f
10:20am 10 16 mph 1012.2mb 24f
10:10am 7 15 mph 1012.2mb 24f
10:00am 8 16 mph 1012.2mb 23f
9:50am 9 15 mph 1012.2mb 23f
9:40am 10 18 mph 1012.2mb 23f
9:30am 10 20 mph 1011.9mb 23f
9:20am 8 17 mph 1011.9mb 23f
9:10am 8 14 mph 1011.9mb 23f
9:00am 11 20 mph 1011.9mb 23f
8:50am 9 13 mph 1011.5mb 23f
8:40am 8 11 mph 1011.5mb 23f
8:30am 8 10 mph 1011.5mb 23f
8:20am 6 11 mph 1011.5mb 23f
8:10am 7 10 mph 1011.5mb 23f
8:00am 6 11 mph 1011.5mb 22f
7:50am 5 11 mph 1011.5mb 22f
7:40am 8 13 mph 1011.5mb 22f
7:30am 8 11 mph 1011.5mb 22f
7:20am 10 15 mph 1011.5mb 22f
7:10am 8 14 mph 1011.5mb 22f
7:00am 8 16 mph 1011.5mb 22f
6:50am 9 16 mph 1011.5mb 22f
6:40am 7 11 mph 1011.5mb 22f
6:30am 7 9 mph 1011.5mb 22f
6:20am 6 11 mph 1011.5mb 22f
6:10am 7 13 mph 1011.5mb 22f
6:00am 8 11 mph 1011.5mb 22f
5:50am 6 13 mph 1011.5mb 22f
5:40am 9 11 mph 1011.5mb 22f
5:30am 6 14 mph 1011.5mb 22f
5:20am 8 13 mph 1011.5mb 22f
5:10am 8 11 mph 1011.5mb 22f
5:00am 6 14 mph 1011.2mb 22f
4:50am 8 14 mph 1011.2mb 22f
4:40am 9 16 mph 1011.2mb 22f
4:30am 9 15 mph 1011.2mb 22f
4:20am 9 15 mph 1011.2mb 22f
4:10am 11 18 mph 1010.8mb 23f
4:00am 13 22 mph 1010.8mb 23f
3:50am 13 21 mph 1010.8mb 23f
3:40am 10 18 mph 1010.8mb 23f
3:30am 14 20 mph 1010.8mb 23f
3:20am 10 20 mph 1010.8mb 23f
3:10am 9 18 mph 1010.8mb 23f
3:00am 13 21 mph 1010.8mb 23f
2:50am 10 18 mph 1010.5mb 23f
2:40am 10 17 mph 1010.5mb 23f
2:30am 10 18 mph 1010.5mb 23f
2:20am 9 15 mph 1010.5mb 24f
2:10am 13 17 mph 1010.8mb 24f
2:00am 8 20 mph 1010.8mb 24f
1:50am 10 17 mph 1010.5mb 24f
1:40am 9 15 mph 1010.2mb 24f
1:30am 10 18 mph 1010.5mb 24f
1:20am 13 20 mph 1010.2mb 24f
1:10am 11 20 mph 1010.2mb 24f
1:00am 7 14 mph 1010.2mb 24f
12:50am 8 14 mph 1010.2mb 24f
12:40am 7 14 mph 1010.2mb 24f
12:30am 9 14 mph 1010.2mb 24f
12:20am 10 15 mph 1010.2mb 25f
12:10am 11 18 mph 1010.2mb 25f
12:00am 7 13 mph 1010.2mb 25f
Sat 11/18 11:50pm 7 14 mph 1010.2mb 25f
11:40pm 10 16 mph 1009.8mb 25f
11:30pm 9 17 mph 1009.8mb 25f
11:20pm 11 17 mph 1009.8mb 25f
11:10pm 10 20 mph 1009.8mb 25f
11:00pm 11 17 mph 1009.5mb 26f
10:50pm 11 17 mph 1009.5mb 26f
10:40pm 10 18 mph 1009.5mb 26f
10:30pm 11 18 mph 1009.1mb 26f
10:20pm 10 18 mph 1009.5mb 26f
10:10pm 9 20 mph 1009.1mb 26f
10:00pm 11 20 mph 1009.1mb 26f
9:50pm 14 18 mph 1009.1mb 26f
9:40pm 10 18 mph 1008.8mb 27f
9:30pm 13 20 mph 1008.8mb 27f
9:20pm 10 20 mph 1008.5mb 27f
9:10pm 13 18 mph 1008.5mb 27f
9:00pm 15 23 mph 1008.5mb 27f
8:50pm 14 22 mph 1008.5mb 27f
8:40pm 9 21 mph 1008.5mb 27f
8:30pm 14 20 mph 1008.5mb 28f
8:20pm 10 17 mph 1008.5mb 28f
8:10pm 9 15 mph 1008.1mb 28f
8:00pm 8 16 mph 1008.1mb 28f
7:50pm 10 16 mph 1008.1mb 28f
7:40pm 10 21 mph 1008.1mb 28f
7:30pm 11 17 mph 1008.1mb 28f
7:20pm 13 21 mph 1007.8mb 28f
7:10pm 15 22 mph 1007.8mb 28f
7:00pm 10 20 mph 1007.8mb 29f
6:50pm 11 18 mph 1007.8mb 29f
6:40pm 13 18 mph 1007.8mb 29f
6:30pm 11 18 mph 1007.5mb 29f
6:20pm 11 16 mph 1007.8mb 29f
6:10pm 13 21 mph 1007.5mb 30f
6:00pm 7 9 mph 1007.5mb 30f
5:50pm 6 8 mph 1007.5mb 30f
5:40pm 7 11 mph 1007.5mb 30f
5:30pm 7 11 mph 1007.5mb 30f
5:20pm 8 14 mph 1007.1mb 30f
5:10pm 6 11 mph 1007.1mb 30f
5:00pm 7 13 mph 1007.1mb 30f
4:50pm 7 17 mph 1006.8mb 30f
4:40pm 9 15 mph 1006.8mb 30f
4:30pm 13 18 mph 1006.8mb 30f
4:20pm 9 14 mph 1006.8mb 30f
4:10pm 8 13 mph 1006.8mb 30f
4:00pm 11 16 mph 1006.8mb 30f
3:50pm 9 18 mph 1006.4mb 30f
3:40pm 13 18 mph 1006.4mb 30f
3:30pm 9 15 mph 1006.4mb 30f
3:20pm 11 16 mph 1006.4mb 31f
3:10pm 8 14 mph 1006.1mb 31f
3:00pm 9 16 mph 1006.1mb 31f
2:50pm 9 14 mph 1006.1mb 31f
2:40pm 7 14 mph 1006.1mb 32f
2:30pm 9 15 mph 1005.8mb 32f
2:20pm 6 13 mph 1005.8mb 32f
2:10pm 8 11 mph 1005.4mb 32f
2:00pm 9 11 mph 1005.4mb 32f
1:50pm 10 17 mph 1005.4mb 32f
1:40pm 6 11 mph 1005.8mb 32f
1:30pm 8 13 mph 1005.8mb 32f
1:20pm 7 15 mph 1005.4mb 32f
1:10pm 9 14 mph 1005.4mb 32f
1:00pm 7 11 mph 1005.1mb 33f
12:50pm 9 13 mph 1005.1mb 33f
12:40pm 7 10 mph 1005.1mb 33f
12:30pm 6 9 mph 1004.7mb 33f
12:20pm 5 8 mph 1004.7mb 33f
12:10pm 6 11 mph 1005.1mb 33f
12:00pm 6 11 mph 1004.7mb 33f
11:50am 8 13 mph 1004.7mb 33f
11:40am 5 8 mph 1004.7mb 33f
11:30am 7 9 mph 1004.7mb 33f
11:20am 8 11 mph 1004.7mb 34f
11:10am 6 9 mph 1005.1mb 34f
11:00am 6 9 mph 1005.1mb 34f
10:50am 7 10 mph 1005.1mb 34f
10:40am 5 9 mph 1005.1mb 34f
10:30am 5 11 mph 1005.1mb 34f